EW8032 Weather Reports


Display with metric or nautical units.
time (UTC)temp
F
wind
direction
speed
MPH
gust
MPH
rain 1hr
in
rain 24hr
in
rain mn
in
humidity
%
barometer
mb
20240530094153 63 322 7.0 11.0 0.00 0.05 0.05 94 1015.7
20240530094012 63 300 7.0 11.0 0.00 0.05 0.05 93 1015.7
20240530093944 63 270 7.0 11.0 0.00 0.05 0.05 93 1015.7
20240530093818 63 266 8.0 13.0 0.00 0.05 0.05 94 1015.7
20240530093638 63 246 7.0 13.0 0.00 0.05 0.05 94 1015.6
20240530093524 63 284 6.0 13.0 0.00 0.05 0.05 93 1015.7
20240530093443 63 269 6.0 13.0 0.00 0.05 0.05 93 1015.6
20240530093032 63 318 7.0 13.0 0.00 0.05 0.05 94 1015.7
20240530093009 63 286 7.0 13.0 0.00 0.05 0.05 94 1015.6
20240530092849 63 320 7.0 12.0 0.00 0.05 0.05 94 1015.6
20240530092510 63 300 7.0 13.0 0.00 0.05 0.05 94 1015.6
20240530092429 63 286 7.0 13.0 0.00 0.05 0.05 94 1015.6
20240530091938 62 269 7.0 13.0 0.00 0.05 0.05 94 1015.6
20240530091919 62 287 9.0 13.0 0.00 0.05 0.05 94 1015.5
20240530091752 62 290 9.0 13.0 0.00 0.05 0.05 94 1015.5
20240530091611 62 264 5.0 13.0 0.00 0.05 0.05 95 1015.6
20240530091507 62 297 8.0 13.0 0.00 0.05 0.05 95 1015.6
20240530091428 62 301 8.0 13.0 0.00 0.05 0.05 95 1015.6
20240530090913 62 271 8.0 13.0 0.00 0.05 0.05 95 1015.6
20240530090732 62 290 6.0 12.0 0.00 0.05 0.05 96 1015.6
20240530090550 62 273 7.0 12.0 0.00 0.05 0.05 96 1015.6
20240530090449 62 275 6.0 12.0 0.00 0.05 0.05 96 1015.6
20240530090403 62 284 5.0 10.0 0.00 0.05 0.05 96 1015.6
20240530090220 62 281 8.0 10.0 0.00 0.05 0.05 96 1015.6
20240530085959 62 265 6.0 10.0 0.00 0.05 0.05 96 1015.5
20240530085815 62 252 4.0 14.0 0.00 0.05 0.05 96 1015.6
20240530085146 62 319 4.0 14.0 0.00 0.05 0.05 96 1015.5
20240530085010 62 295 9.0 14.0 0.00 0.05 0.05 96 1015.5
20240530084826 62 268 9.0 14.0 0.00 0.05 0.05 97 1015.5
20240530084820 62 268 9.0 14.0 0.00 0.05 0.05 97 1015.5
20240530084251 62 296 6.0 12.0 0.00 0.05 0.05 97 1015.5
20240530084155 62 298 7.0 12.0 0.00 0.05 0.05 97 1015.6
20240530084101 62 313 6.0 14.0 0.00 0.05 0.05 97 1015.5
20240530083920 62 277 5.0 14.0 0.00 0.05 0.05 97 1015.4
20240530083740 62 276 7.0 15.0 0.00 0.05 0.05 97 1015.5
20240530083331 62 285 7.0 15.0 0.00 0.05 0.05 96 1015.4
20240530083150 62 259 9.0 15.0 0.00 0.05 0.05 96 1015.4
20240530083100 62 290 9.0 15.0 0.00 0.05 0.05 96 1015.4
20240530082953 62 262 9.0 15.0 0.00 0.05 0.05 96 1015.4
20240530082758 62 296 9.0 15.0 0.00 0.05 0.05 96 1015.4
20240530082623 62 275 6.0 13.0 0.00 0.05 0.05 97 1015.3
20240530082608 62 296 6.0 13.0 0.00 0.05 0.05 97 1015.3
20240530082412 62 263 6.0 10.0 0.00 0.05 0.05 97 1015.4
20240530082237 62 238 6.0 12.0 0.00 0.05 0.05 97 1015.4
20240530082146 62 251 6.0 12.0 0.00 0.05 0.05 97 1015.3
20240530082043 62 238 5.0 12.0 0.00 0.05 0.05 97 1015.3
20240530081901 62 253 5.0 12.0 0.00 0.05 0.05 97 1015.4
20240530081729 62 300 8.0 12.0 0.00 0.05 0.05 97 1015.4
20240530081710 62 279 8.0 13.0 0.00 0.05 0.05 97 1015.4
20240530081529 62 271 8.0 13.0 0.00 0.05 0.05 97 1015.4
20240530081348 62 276 5.0 15.0 0.00 0.05 0.05 97 1015.4
20240530081310 62 290 7.0 15.0 0.00 0.05 0.05 97 1015.4
20240530081204 62 283 9.0 15.0 0.00 0.05 0.05 97 1015.4
20240530081023 62 276 9.0 15.0 0.00 0.05 0.05 97 1015.4
20240530080856 62 273 9.0 15.0 0.00 0.05 0.05 97 1015.4
20240530080832 62 267 9.0 15.0 0.00 0.05 0.05 97 1015.4
20240530080651 62 259 9.0 15.0 0.00 0.05 0.05 97 1015.4
20240530080506 62 297 6.0 16.0 0.00 0.05 0.05 97 1015.4
20240530080441 62 267 6.0 16.0 0.00 0.05 0.05 97 1015.4
20240530080317 62 319 6.0 16.0 0.00 0.05 0.05 97 1015.4
20240530080137 62 295 9.0 16.0 0.00 0.05 0.05 97 1015.4
20240530080019 62 291 9.0 16.0 0.00 0.05 0.05 97 1015.4
20240530075951 62 261 9.0 16.0 0.00 0.05 0.05 97 1015.3
20240530075219 62 266 7.0 13.0 0.00 0.05 0.05 98 1015.4
20240530075045 62 263 9.0 13.0 0.00 0.05 0.05 98 1015.4
20240530074650 62 281 6.0 13.0 0.00 0.05 0.05 98 1015.4
20240530074456 62 234 8.0 12.0 0.00 0.05 0.05 98 1015.3
20240530074315 62 279 6.0 11.0 0.00 0.05 0.05 98 1015.3
20240530074249 62 259 6.0 10.0 0.00 0.05 0.05 98 1015.3
20240530074129 62 269 6.0 10.0 0.00 0.05 0.05 98 1015.2
20240530073951 62 256 6.0 10.0 0.00 0.05 0.05 98 1015.2
20240530073833 62 234 8.0 11.0 0.00 0.05 0.05 98 1015.2
20240530073804 62 263 8.0 11.0 0.00 0.05 0.05 98 1015.2
20240530073614 62 230 5.0 11.0 0.00 0.05 0.05 98 1015.1
20240530073433 62 249 5.0 11.0 0.00 0.05 0.05 98 1015.1
20240530073407 62 252 7.0 11.0 0.00 0.05 0.05 98 1015.1
20240530073247 62 289 7.0 11.0 0.00 0.05 0.05 98 1015.3
20240530073106 62 262 6.0 11.0 0.00 0.05 0.05 98 1015.2
20240530072957 62 272 5.0 11.0 0.00 0.05 0.05 98 1015.1
20240530072921 62 242 5.0 11.0 0.00 0.05 0.05 98 1015.2
20240530072740 62 220 6.0 12.0 0.01 0.05 0.05 98 1015.1
20240530072325 62 234 4.0 12.0 0.01 0.05 0.05 98 1015.0
20240530071917 62 253 6.0 13.0 0.01 0.05 0.05 98 1015.1
20240530071735 62 243 7.0 13.0 0.01 0.05 0.05 98 1015.0
20240530071451 62 254 5.0 13.0 0.01 0.05 0.05 98 1015.0
20240530071322 62 237 6.0 13.0 0.01 0.05 0.05 98 1015.0
20240530070920 62 238 5.0 10.0 0.01 0.05 0.05 98 1015.1
20240530070412 62 246 4.0 10.0 0.01 0.05 0.05 98 1015.0
20240530070400 62 252 4.0 10.0 0.01 0.05 0.05 98 1015.1
20240530070222 62 244 5.0 10.0 0.01 0.05 0.05 98 1015.0
20240530070052 61 261 4.0 9.0 0.01 0.05 0.05 98 1015.0
20240530065953 62 259 5.0 9.0 0.01 0.05 0.05 98 1015.0
20240530065903 61 236 5.0 9.0 0.01 0.05 0.05 98 1015.0
20240530065328 61 286 3.0 10.0 0.01 0.05 0.05 98 1015.0
20240530065145 62 227 3.0 11.0 0.01 0.05 0.05 98 1015.0
20240530065008 62 234 5.0 11.0 0.01 0.05 0.05 98 1014.9
20240530064923 62 260 5.0 11.0 0.01 0.05 0.05 98 1015.0
20240530064825 61 244 5.0 11.0 0.01 0.05 0.05 98 1014.9
20240530064653 61 254 6.0 11.0 0.01 0.05 0.05 98 1015.0
20240530064459 62 264 3.0 11.0 0.01 0.05 0.05 98 1015.0
20240530064326 62 251 4.0 8.0 0.01 0.05 0.05 98 1015.0
20240530064153 62 253 3.0 8.0 0.01 0.05 0.05 98 1015.0
20240530063728 61 259 6.0 11.0 0.01 0.05 0.05 98 1014.9
20240530063543 61 240 5.0 11.0 0.01 0.05 0.05 98 1014.9
20240530063147 61 270 8.0 11.0 0.01 0.05 0.05 98 1015.0
20240530062728 61 241 6.0 11.0 0.01 0.04 0.04 98 1015.0
20240530062317 61 244 6.0 11.0 0.01 0.04 0.04 98 1014.9
20240530061239 61 243 3.0 9.0 0.01 0.04 0.04 98 1014.8
20240530061057 61 241 4.0 9.0 0.01 0.04 0.04 98 1014.8
20240530061010 61 271 4.0 9.0 0.01 0.04 0.04 98 1014.8
20240530060908 61 234 4.0 10.0 0.01 0.04 0.04 98 1014.8
20240530060451 61 241 5.0 10.0 0.01 0.04 0.04 98 1014.8
20240530060435 61 270 5.0 10.0 0.01 0.04 0.04 98 1014.8
20240530060257 61 253 4.0 10.0 0.01 0.04 0.04 98 1014.7
20240530055912 61 209 4.0 11.0 0.01 0.04 0.04 98 1014.8
20240530055805 61 250 4.0 11.0 0.01 0.04 0.04 98 1014.8
20240530055628 61 251 4.0 11.0 0.01 0.04 0.04 98 1014.8
20240530055504 61 244 3.0 11.0 0.01 0.04 0.04 98 1014.7
20240530055443 61 232 3.0 11.0 0.01 0.04 0.04 98 1014.7
20240530055301 61 238 6.0 11.0 0.02 0.04 0.04 98 1014.6
20240530054855 61 254 4.0 8.0 0.02 0.04 0.04 98 1014.7
20240530054714 61 278 5.0 8.0 0.02 0.04 0.04 98 1014.7
20240530054404 61 246 3.0 8.0 0.02 0.04 0.04 98 1014.8
20240530054218 61 244 3.0 8.0 0.02 0.04 0.04 98 1014.6
20240530054037 61 252 3.0 9.0 0.02 0.04 0.04 98 1014.6
20240530054004 61 246 3.0 9.0 0.02 0.04 0.04 98 1014.6
20240530053847 61 243 4.0 9.0 0.02 0.04 0.04 97 1014.7
20240530053658 61 242 4.0 9.0 0.02 0.04 0.04 97 1014.7
20240530053211 61 284 6.0 10.0 0.02 0.04 0.04 97 1014.7
20240530053024 61 236 4.0 11.0 0.02 0.04 0.04 97 1014.7
20240530052623 61 265 4.0 11.0 0.02 0.03 0.03 97 1014.7
20240530052443 61 240 5.0 11.0 0.02 0.03 0.03 97 1014.7
20240530052333 61 231 5.0 11.0 0.02 0.03 0.03 97 1014.7
20240530051856 61 246 6.0 11.0 0.02 0.03 0.03 97 1014.7
20240530051712 61 270 5.0 9.0 0.02 0.03 0.03 97 1014.7
20240530051646 61 243 5.0 9.0 0.02 0.03 0.03 97 1014.7
20240530051525 61 235 3.0 8.0 0.02 0.03 0.03 97 1014.7
20240530051344 61 236 4.0 10.0 0.02 0.03 0.03 97 1014.7
20240530051240 61 239 4.0 10.0 0.02 0.03 0.03 97 1014.7
20240530051158 61 254 4.0 10.0 0.03 0.03 0.03 97 1014.8
20240530051027 61 246 4.0 10.0 0.03 0.03 0.03 97 1014.7
20240530050847 61 217 4.0 10.0 0.03 0.03 0.03 97 1014.8
20240530050822 61 251 6.0 10.0 0.03 0.03 0.03 97 1014.7
20240530050647 61 243 5.0 10.0 0.03 0.03 0.03 97 1014.8
20240530050458 61 242 4.0 8.0 0.03 0.03 0.03 97 1014.7
20240530050350 61 239 3.0 8.0 0.03 0.03 0.03 97 1014.8
20240530050307 61 241 3.0 8.0 0.03 0.03 0.03 97 1014.7
20240530050127 61 252 4.0 8.0 0.03 0.03 0.03 97 1014.7
20240530045949 61 248 3.0 8.0 0.03 0.03 0.03 97 1014.8
20240530045933 61 241 3.0 8.0 0.03 0.03 0.03 97 1014.8
20240530045805 61 249 3.0 8.0 0.03 0.03 0.03 97 1014.8
20240530045617 61 244 4.0 8.0 0.03 0.03 0.03 97 1014.8
20240530045513 61 238 4.0 8.0 0.03 0.03 0.03 97 1014.8
20240530045428 62 248 4.0 8.0 0.03 0.03 0.03 97 1014.8
20240530045247 61 257 2.0 8.0 0.02 0.02 0.02 97 1014.9
20240530044759 61 277 4.0 7.0 0.02 0.02 0.02 97 1014.8
20240530044614 62 261 2.0 7.0 0.02 0.02 0.02 97 1014.8
20240530044519 62 269 2.0 9.0 0.02 0.02 0.02 97 1014.8
20240530044433 62 244 2.0 9.0 0.02 0.02 0.02 97 1014.8
20240530044244 62 236 3.0 9.0 0.02 0.02 0.02 97 1014.8
20240530043526 62 248 4.0 10.0 0.02 0.02 0.02 97 1014.9
20240530043430 62 224 4.0 10.0 0.02 0.02 0.02 97 1014.9
20240530043344 62 223 4.0 10.0 0.02 0.02 0.02 97 1014.9
20240530043157 62 252 4.0 10.0 0.02 0.02 0.02 97 1014.9
20240530043011 62 254 6.0 10.0 0.02 0.02 0.02 97 1014.9
20240530043005 62 243 6.0 10.0 0.02 0.02 0.02 97 1014.9
20240530042815 62 255 4.0 9.0 0.02 0.02 0.02 96 1014.9
20240530042030 62 237 4.0 8.0 0.01 0.01 0.01 96 1014.9
20240530042018 62 262 4.0 8.0 0.01 0.01 0.01 96 1014.9
20240530041611 62 236 3.0 7.0 0.01 0.01 0.01 96 1015.0
20240530041504 62 253 3.0 7.0 0.01 0.01 0.01 96 1014.9
20240530040750 62 244 3.0 7.0 0.00 0.00 0.00 96 1015.0
20240530040610 62 241 3.0 7.0 0.00 0.00 0.00 96 1015.0
20240530040301 62 254 4.0 7.0 0.00 0.00 0.00 96 1015.0
20240530040124 62 231 2.0 7.0 0.00 0.00 0.00 95 1015.0
20240530035948 62 246 2.0 7.0 0.00 0.00 0.00 95 1015.0
20240530035551 62 196 4.0 9.0 0.00 0.00 0.00 95 1015.1
20240530035410 62 237 3.0 9.0 0.00 0.00 0.00 95 1015.1
20240530035311 62 246 3.0 9.0 0.00 0.00 0.00 95 1015.1
20240530035226 62 269 3.0 9.0 0.00 0.00 0.00 95 1015.2
20240530035040 62 232 3.0 9.0 0.00 0.00 0.00 95 1015.1
20240530034859 62 227 5.0 9.0 0.00 0.00 0.00 94 1015.2
20240530034843 62 227 5.0 9.0 0.00 0.00 0.00 94 1015.1
20240530034713 62 268 4.0 9.0 0.00 0.00 0.00 94 1015.1
20240530034532 62 255 4.0 9.0 0.00 0.00 0.00 94 1015.2
20240530034436 62 249 2.0 9.0 0.00 0.00 0.00 94 1015.3
20240530034341 62 230 2.0 9.0 0.00 0.00 0.00 94 1015.2
20240530034202 62 242 3.0 9.0 0.00 0.00 0.00 94 1015.3
20240530033910 62 240 4.0 9.0 0.00 0.00 0.00 94 1015.2
20240530033727 62 234 4.0 9.0 0.00 0.00 0.00 94 1015.2
20240530033549 62 246 3.0 8.0 0.00 0.00 0.00 93 1015.2
20240530033457 62 243 3.0 8.0 0.00 0.00 0.00 93 1015.2
20240530033402 62 254 3.0 7.0 0.00 0.00 0.00 93 1015.2
20240530032612 62 232 4.0 8.0 0.00 0.00 0.00 93 1015.2
20240530032436 62 234 4.0 8.0 0.00 0.00 0.00 93 1015.3
20240530032340 62 240 4.0 8.0 0.00 0.00 0.00 93 1015.3
20240530032246 62 250 3.0 8.0 0.00 0.00 0.00 93 1015.3
20240530032108 62 244 3.0 6.0 0.00 0.00 0.00 93 1015.2
20240530031923 62 245 2.0 6.0 0.00 0.00 0.00 93 1015.4
20240530031745 62 248 2.0 6.0 0.00 0.00 0.00 93 1015.3
20240530031348 62 238 3.0 9.0 0.00 0.00 0.00 93 1015.4
20240530030844 62 236 3.0 9.0 0.00 0.00 0.00 93 1015.4
20240530030319 62 232 3.0 7.0 0.00 0.00 0.00 93 1015.4
20240530030232 62 257 3.0 7.0 0.00 0.00 0.00 93 1015.4
20240530030137 62 226 3.0 7.0 0.00 0.00 0.00 93 1015.4
20240530025956 62 236 2.0 4.0 0.00 0.00 0.00 93 1015.4
20240530025828 62 225 1.0 5.0 0.00 0.00 0.00 93 1015.4
20240530025659 62 228 2.0 5.0 0.00 0.00 0.00 93 1015.5
20240530025519 62 234 3.0 5.0 0.00 0.00 0.00 93 1015.6
20240530025427 62 250 3.0 5.0 0.00 0.00 0.00 93 1015.6
20240530025328 62 240 3.0 5.0 0.00 0.00 0.00 93 1015.6
20240530025152 62 227 2.0 5.0 0.00 0.00 0.00 93 1015.6
20240530025014 62 229 3.0 4.0 0.00 0.00 0.00 93 1015.6
20240530025002 62 227 3.0 4.0 0.00 0.00 0.00 93 1015.6
20240530024444 62 226 2.0 4.0 0.00 0.00 0.00 93 1015.6
20240530024352 62 226 2.0 7.0 0.00 0.00 0.00 93 1015.7
20240530024258 62 236 2.0 8.0 0.00 0.00 0.00 93 1015.7
20240530024104 62 226 3.0 8.0 0.00 0.00 0.00 93 1015.6
20240530023923 62 254 3.0 8.0 0.00 0.00 0.00 93 1015.7
20240530023742 62 232 3.0 8.0 0.00 0.00 0.00 93 1015.7
20240530023616 62 246 4.0 8.0 0.00 0.00 0.00 93 1015.8
20240530023520 62 281 3.0 8.0 0.00 0.00 0.00 93 1015.8
20240530023432 62 244 3.0 7.0 0.00 0.00 0.00 93 1015.8
20240530023042 62 228 3.0 11.0 0.00 0.00 0.00 93 1015.8
20240530022440 62 253 7.0 11.0 0.00 0.00 0.00 93 1015.8
20240530022349 62 257 5.0 11.0 0.00 0.00 0.00 93 1015.8
20240530022205 62 246 3.0 9.0 0.00 0.00 0.00 93 1015.9
20240530021932 62 245 2.0 9.0 0.00 0.00 0.00 93 1015.8
20240530021745 62 243 4.0 9.0 0.00 0.00 0.00 93 1015.8
20240530021600 62 228 2.0 9.0 0.00 0.00 0.00 93 1015.8
20240530021230 62 231 3.0 6.0 0.00 0.00 0.00 93 1015.9
20240530020653 62 242 3.0 6.0 0.00 0.00 0.00 93 1015.9
20240530020513 62 234 3.0 6.0 0.00 0.00 0.00 93 1015.9
20240530020339 62 251 4.0 6.0 0.00 0.00 0.00 93 1015.9
20240530020249 62 271 4.0 6.0 0.00 0.00 0.00 93 1016.0
20240530020150 62 252 3.0 6.0 0.00 0.00 0.00 93 1015.9
20240530020014 62 246 3.0 4.0 0.00 0.00 0.00 93 1016.0
20240530015838 62 260 2.0 6.0 0.00 0.00 0.00 93 1016.0
20240530015826 62 260 2.0 6.0 0.00 0.00 0.00 93 1016.0
20240530015645 62 220 3.0 7.0 0.00 0.00 0.00 94 1016.1
20240530015510 62 240 2.0 7.0 0.00 0.00 0.00 94 1016.1
20240530015419 62 259 2.0 7.0 0.00 0.00 0.00 94 1016.1
20240530015318 62 230 2.0 7.0 0.00 0.00 0.00 94 1016.1
20240530015142 62 230 3.0 7.0 0.00 0.00 0.00 94 1016.1
20240530014321 62 227 3.0 8.0 0.00 0.00 0.00 94 1016.2
20240530014239 62 263 4.0 8.0 0.00 0.00 0.00 94 1016.2
20240530014129 62 244 4.0 8.0 0.00 0.00 0.00 94 1016.2
20240530013948 62 248 3.0 7.0 0.00 0.00 0.00 94 1016.2
20240530013831 62 212 3.0 7.0 0.00 0.00 0.00 94 1016.3
20240530013809 62 211 3.0 7.0 0.00 0.00 0.00 94 1016.3
20240530013624 62 242 2.0 7.0 0.00 0.00 0.00 94 1016.2
20240530013456 62 234 3.0 7.0 0.00 0.00 0.00 94 1016.3
20240530013420 62 268 3.0 7.0 0.00 0.00 0.00 94 1016.2
20240530013313 62 240 3.0 7.0 0.00 0.00 0.00 94 1016.2
20240530013136 62 216 2.0 7.0 0.00 0.00 0.00 94 1016.3
20240530013009 62 234 2.0 7.0 0.00 0.00 0.00 94 1016.3
20240530012948 62 243 2.0 7.0 0.00 0.00 0.00 94 1016.3
20240530012817 62 230 3.0 7.0 0.00 0.00 0.00 94 1016.3
20240530012519 62 246 3.0 7.0 0.00 0.00 0.00 94 1016.3
20240530012357 62 229 2.0 6.0 0.00 0.00 0.00 94 1016.3
20240530012220 62 244 4.0 6.0 0.00 0.00 0.00 94 1016.3
20240530011826 62 234 3.0 9.0 0.00 0.00 0.00 94 1016.4
20240530011029 62 265 6.0 11.0 0.00 0.00 0.00 94 1016.5
20240530010913 62 246 4.0 11.0 0.00 0.00 0.00 93 1016.3
20240530010843 62 246 4.0 11.0 0.00 0.00 0.00 93 1016.5
20240530010657 62 238 5.0 11.0 0.00 0.00 0.00 93 1016.5
20240530010516 62 256 6.0 11.0 0.00 0.00 0.00 93 1016.5
20240530010452 62 250 7.0 11.0 0.00 0.00 0.00 93 1016.5
20240530010331 62 261 8.0 11.0 0.00 0.00 0.00 93 1016.5
20240530010150 62 265 5.0 9.0 0.00 0.00 0.00 93 1016.6
20240530005720 62 269 3.0 7.0 0.00 0.00 0.00 93 1016.6
20240530005544 62 251 3.0 7.0 0.00 0.00 0.00 93 1016.6
20240530004940 62 251 3.0 8.0 0.00 0.00 0.00 93 1016.7
20240530004858 62 244 3.0 8.0 0.00 0.00 0.00 93 1016.7
20240530004437 62 269 3.0 8.0 0.00 0.00 0.00 93 1016.7
20240530004417 62 242 4.0 8.0 0.00 0.00 0.00 93 1016.7
20240530004242 62 243 4.0 8.0 0.00 0.00 0.00 93 1016.7
20240530003822 62 304 3.0 10.0 0.00 0.00 0.00 93 1016.8
20240530003651 62 252 4.0 10.0 0.00 0.00 0.00 93 1016.7
20240530003332 62 267 5.0 11.0 0.00 0.00 0.00 93 1016.9
20240530003206 62 273 4.0 11.0 0.00 0.00 0.00 93 1016.9
20240530003025 62 246 6.0 11.0 0.00 0.00 0.00 93 1016.8
20240530002925 62 254 5.0 11.0 0.00 0.00 0.00 92 1016.9
20240530002840 62 260 5.0 11.0 0.00 0.00 0.00 92 1016.9
20240530002034 62 261 5.0 10.0 0.00 0.00 0.00 92 1017.1
20240530001938 62 261 6.0 10.0 0.00 0.00 0.00 92 1017.1
20240530001845 62 236 6.0 10.0 0.00 0.00 0.00 92 1017.1
20240530001420 62 259 4.0 11.0 0.00 0.00 0.00 92 1017.1
20240530001237 63 248 6.0 11.0 0.00 0.00 0.00 91 1017.1
20240530001033 63 252 4.0 11.0 0.00 0.00 0.00 91 1017.2
20240530000940 63 238 5.0 11.0 0.00 0.00 0.00 91 1017.1
20240530000846 62 232 7.0 11.0 0.00 0.00 0.00 91 1017.1
20240530000341 63 246 6.0 11.0 0.00 0.00 0.00 91 1017.2
20240530000204 63 248 2.0 10.0 0.00 0.00 0.00 91 1017.1
20240530000023 63 226 3.0 10.0 0.00 0.00 0.00 91 1017.1
20240529235930 63 260 4.0 10.0 0.00 0.00 0.00 91 1017.2
20240529235448 63 255 4.0 10.0 0.00 0.00 0.00 91 1017.1
20240529235308 63 226 6.0 10.0 0.00 0.00 0.00 91 1017.1
20240529235121 63 246 6.0 10.0 0.00 0.00 0.00 91 1017.2
20240529234945 63 254 3.0 9.0 0.00 0.00 0.00 91 1017.2
20240529234849 63 240 4.0 9.0 0.00 0.00 0.00 91 1017.2
20240529234801 63 248 4.0 9.0 0.00 0.00 0.00 91 1017.2
20240529234609 63 250 5.0 9.0 0.00 0.00 0.00 91 1017.3
20240529234420 63 268 6.0 9.0 0.00 0.00 0.00 91 1017.4
20240529233919 63 246 4.0 8.0 0.00 0.00 0.00 91 1017.2
20240529233823 63 249 2.0 8.0 0.00 0.00 0.00 91 1017.2
20240529233733 63 257 4.0 8.0 0.00 0.00 0.00 91 1017.3
20240529233557 63 244 4.0 8.0 0.00 0.00 0.00 91 1017.4
20240529233204 63 242 4.0 8.0 0.00 0.00 0.00 91 1017.3
20240529233025 63 266 3.0 8.0 0.00 0.00 0.00 91 1017.4
20240529232847 63 263 4.0 10.0 0.00 0.00 0.00 91 1017.4
20240529232751 63 240 3.0 10.0 0.00 0.00 0.00 91 1017.4
20240529232658 63 249 2.0 10.0 0.00 0.00 0.00 91 1017.4
20240529232518 63 238 3.0 10.0 0.00 0.00 0.00 91 1017.4
20240529232329 63 242 4.0 10.0 0.00 0.00 0.00 91 1017.4
20240529232141 63 232 2.0 10.0 0.00 0.00 0.00 91 1017.4
20240529232027 63 217 2.0 7.0 0.00 0.00 0.00 91 1017.4
20240529231932 63 234 2.0 10.0 0.00 0.00 0.00 91 1017.5
20240529231845 63 242 3.0 11.0 0.00 0.00 0.00 91 1017.6
20240529231712 63 249 2.0 11.0 0.00 0.00 0.00 91 1017.5
20240529231245 63 219 6.0 11.0 0.00 0.00 0.00 91 1017.5
20240529231104 63 258 5.0 11.0 0.00 0.00 0.00 90 1017.6
20240529231005 63 233 4.0 11.0 0.00 0.00 0.00 91 1017.6
20240529230907 63 262 4.0 10.0 0.00 0.00 0.00 91 1017.7
20240529230730 63 244 6.0 10.0 0.00 0.00 0.00 90 1017.6
20240529230445 63 246 5.0 10.0 0.00 0.00 0.00 90 1017.6
20240529230302 63 271 4.0 11.0 0.00 0.00 0.00 90 1017.6
20240529230121 63 241 4.0 11.0 0.00 0.00 0.00 90 1017.7
20240529225712 63 256 4.0 11.0 0.00 0.00 0.00 90 1017.6
20240529225349 63 271 6.0 11.0 0.00 0.00 0.00 90 1017.6
20240529225203 63 247 4.0 11.0 0.00 0.00 0.00 90 1017.6
20240529225015 63 258 3.0 8.0 0.00 0.00 0.00 90 1017.6
20240529224625 63 243 4.0 8.0 0.00 0.00 0.00 90 1017.6
20240529224444 63 234 4.0 8.0 0.00 0.00 0.00 90 1017.6
20240529224048 63 225 4.0 8.0 0.00 0.00 0.00 90 1017.6
20240529223902 63 281 3.0 8.0 0.00 0.00 0.00 90 1017.7
20240529223720 63 263 5.0 8.0 0.00 0.00 0.00 90 1017.6
20240529223632 63 240 4.0 8.0 0.00 0.00 0.00 90 1017.6
20240529223148 63 236 2.0 8.0 0.00 0.00 0.00 89 1017.7
20240529223010 63 223 2.0 8.0 0.00 0.00 0.00 89 1017.6
20240529222454 63 231 3.0 8.0 0.00 0.00 0.00 89 1017.7
20240529222402 63 227 4.0 8.0 0.00 0.00 0.00 89 1017.8
20240529222257 63 236 4.0 8.0 0.00 0.00 0.00 89 1017.7
20240529222116 63 236 2.0 7.0 0.00 0.00 0.00 89 1017.8
20240529221924 63 218 3.0 7.0 0.00 0.00 0.00 89 1017.7
20240529221725 63 218 2.0 7.0 0.00 0.00 0.00 89 1017.9
20240529221548 63 233 3.0 7.0 0.00 0.00 0.00 89 1017.8
20240529221143 63 237 3.0 7.0 0.00 0.00 0.00 89 1017.9
20240529221002 63 220 3.0 10.0 0.00 0.00 0.00 89 1017.9
20240529220821 63 258 3.0 10.0 0.00 0.00 0.00 88 1017.9
20240529220626 63 248 2.0 10.0 0.00 0.00 0.00 88 1017.9
20240529220456 63 248 4.0 10.0 0.00 0.00 0.00 88 1017.9
20240529220401 63 261 4.0 10.0 0.00 0.00 0.00 88 1018.0
20240529220254 63 251 3.0 10.0 0.00 0.00 0.00 89 1017.9
20240529220121 63 244 2.0 8.0 0.00 0.00 0.00 88 1018.0
20240529215943 63 229 3.0 8.0 0.00 0.00 0.00 88 1018.0
20240529215751 63 237 3.0 8.0 0.00 0.00 0.00 88 1018.1
20240529215618 63 225 3.0 8.0 0.00 0.00 0.00 88 1018.1
20240529215525 63 236 4.0 8.0 0.00 0.00 0.00 88 1018.1
20240529215436 63 267 4.0 8.0 0.00 0.00 0.00 88 1018.1
20240529215255 63 230 2.0 12.0 0.00 0.00 0.00 88 1018.1
20240529215116 63 243 3.0 12.0 0.00 0.00 0.00 87 1018.1
20240529215112 63 240 3.0 12.0 0.00 0.00 0.00 87 1018.1
20240529214914 63 246 2.0 12.0 0.00 0.00 0.00 87 1018.0
20240529214735 63 236 5.0 12.0 0.00 0.00 0.00 87 1018.1
20240529214648 63 250 6.0 12.0 0.00 0.00 0.00 87 1018.1
20240529214545 63 244 7.0 12.0 0.00 0.00 0.00 87 1018.2
20240529214404 63 273 4.0 8.0 0.00 0.00 0.00 87 1018.2
20240529214234 63 247 4.0 8.0 0.00 0.00 0.00 87 1018.1
20240529214217 63 225 4.0 9.0 0.00 0.00 0.00 87 1018.1
20240529214023 64 252 3.0 9.0 0.00 0.00 0.00 87 1018.1
20240529213842 64 232 5.0 9.0 0.00 0.00 0.00 87 1018.2
20240529213804 64 281 6.0 9.0 0.00 0.00 0.00 86 1018.1
20240529213653 64 241 5.0 9.0 0.00 0.00 0.00 86 1018.1
20240529213512 64 234 5.0 9.0 0.00 0.00 0.00 86 1018.1
20240529213338 64 252 4.0 9.0 0.00 0.00 0.00 86 1018.1
20240529213314 64 242 4.0 8.0 0.00 0.00 0.00 86 1018.2
20240529213134 64 284 5.0 11.0 0.00 0.00 0.00 86 1018.1
20240529212953 64 269 5.0 11.0 0.00 0.00 0.00 86 1018.1
20240529212915 64 244 5.0 11.0 0.00 0.00 0.00 86 1018.0
20240529212800 64 290 6.0 11.0 0.00 0.00 0.00 86 1018.0
20240529212107 64 270 7.0 11.0 0.00 0.00 0.00 85 1018.1
20240529211922 64 249 9.0 11.0 0.00 0.00 0.00 84 1018.1
20240529211853 64 269 9.0 11.0 0.00 0.00 0.00 84 1018.1
20240529211729 64 262 6.0 11.0 0.00 0.00 0.00 84 1018.0
20240529211312 65 254 6.0 10.0 0.00 0.00 0.00 84 1018.0
20240529211129 65 267 5.0 8.0 0.00 0.00 0.00 83 1018.0
20240529210437 65 265 4.0 6.0 0.00 0.00 0.00 82 1018.0
20240529210319 65 230 4.0 9.0 0.00 0.00 0.00 81 1017.9
20240529210254 65 272 3.0 9.0 0.00 0.00 0.00 81 1017.9
20240529205730 65 265 4.0 9.0 0.00 0.00 0.00 81 1018.0
20240529205652 65 253 4.0 9.0 0.00 0.00 0.00 81 1017.9
20240529205535 65 252 4.0 11.0 0.00 0.00 0.00 81 1017.9
20240529205356 65 257 5.0 11.0 0.00 0.00 0.00 81 1017.9
20240529205242 65 275 5.0 11.0 0.00 0.00 0.00 81 1017.8
20240529205212 65 262 5.0 11.0 0.00 0.00 0.00 80 1017.8
20240529205032 65 292 4.0 11.0 0.00 0.00 0.00 80 1017.8
20240529204848 65 261 6.0 11.0 0.00 0.00 0.00 80 1017.8
20240529204817 65 274 6.0 11.0 0.00 0.00 0.00 80 1017.8
20240529204701 65 246 5.0 11.0 0.00 0.00 0.00 79 1017.8
20240529204519 65 257 4.0 11.0 0.00 0.00 0.00 79 1017.8
20240529204356 65 244 4.0 11.0 0.00 0.00 0.00 79 1017.8
20240529204332 65 254 6.0 11.0 0.00 0.00 0.00 79 1017.8
20240529203906 65 237 5.0 12.0 0.00 0.00 0.00 78 1017.6
20240529203825 65 266 5.0 12.0 0.00 0.00 0.00 78 1017.6
20240529203714 66 257 7.0 12.0 0.00 0.00 0.00 77 1017.6
20240529203532 66 287 4.0 12.0 0.00 0.00 0.00 77 1017.6
20240529203404 66 238 4.0 12.0 0.00 0.00 0.00 77 1017.6
20240529203348 66 259 4.0 12.0 0.00 0.00 0.00 77 1017.6
20240529202925 66 244 4.0 9.0 0.00 0.00 0.00 76 1017.6
20240529202850 66 253 4.0 9.0 0.00 0.00 0.00 76 1017.6
20240529202056 66 246 4.0 8.0 0.00 0.00 0.00 76 1017.5
20240529201909 66 259 5.0 8.0 0.00 0.00 0.00 76 1017.6
20240529201822 66 254 5.0 8.0 0.00 0.00 0.00 76 1017.7
20240529201713 66 264 6.0 8.0 0.00 0.00 0.00 76 1017.6
20240529201532 66 290 4.0 8.0 0.00 0.00 0.00 76 1017.6
20240529201230 67 246 4.0 8.0 0.00 0.00 0.00 76 1017.7
20240529201045 67 275 4.0 8.0 0.00 0.00 0.00 76 1017.6
20240529200908 67 269 4.0 8.0 0.00 0.00 0.00 76 1017.6
20240529200807 67 262 5.0 9.0 0.00 0.00 0.00 75 1017.6
20240529200713 67 271 5.0 9.0 0.00 0.00 0.00 75 1017.5
20240529200532 67 263 4.0 9.0 0.00 0.00 0.00 75 1017.5
20240529200255 67 258 5.0 9.0 0.00 0.00 0.00 75 1017.5
20240529200116 67 269 6.0 9.0 0.00 0.00 0.00 75 1017.5
20240529195333 67 271 6.0 9.0 0.00 0.00 0.00 74 1017.6
20240529194656 67 268 4.0 10.0 0.00 0.00 0.00 74 1017.5
20240529194519 67 263 4.0 10.0 0.00 0.00 0.00 74 1017.5
20240529194334 67 271 5.0 10.0 0.00 0.00 0.00 73 1017.5
20240529193857 67 268 7.0 10.0 0.00 0.00 0.00 73 1017.6
20240529193758 67 271 6.0 10.0 0.00 0.00 0.00 73 1017.5
20240529193704 67 254 5.0 9.0 0.00 0.00 0.00 73 1017.5
20240529193523 67 239 5.0 8.0 0.00 0.00 0.00 73 1017.5
20240529193332 67 259 5.0 9.0 0.00 0.00 0.00 72 1017.4
20240529192930 67 275 5.0 9.0 0.00 0.00 0.00 72 1017.5
20240529192059 68 290 4.0 9.0 0.00 0.00 0.00 72 1017.5
20240529191915 68 244 4.0 9.0 0.00 0.00 0.00 72 1017.5
20240529191735 68 254 6.0 9.0 0.00 0.00 0.00 72 1017.4
20240529191642 68 285 6.0 9.0 0.00 0.00 0.00 72 1017.4
20240529191548 68 271 6.0 9.0 0.00 0.00 0.00 72 1017.4
20240529191413 68 269 6.0 9.0 0.00 0.00 0.00 72 1017.5
20240529191223 68 236 5.0 9.0 0.00 0.00 0.00 72 1017.4
20240529191038 68 262 4.0 8.0 0.00 0.00 0.00 72 1017.5
20240529190601 68 270 3.0 10.0 0.00 0.00 0.00 71 1017.5
20240529190510 68 250 3.0 10.0 0.00 0.00 0.00 71 1017.5
20240529190340 68 238 3.0 10.0 0.00 0.00 0.00 70 1017.5
20240529190145 68 254 4.0 10.0 0.00 0.00 0.00 70 1017.5
20240529190001 68 265 2.0 10.0 0.00 0.00 0.00 70 1017.5
20240529185829 68 234 4.0 9.0 0.00 0.00 0.00 70 1017.5
20240529185741 68 242 5.0 9.0 0.00 0.00 0.00 70 1017.5
20240529185643 68 263 5.0 9.0 0.00 0.00 0.00 70 1017.6
20240529185502 68 258 6.0 9.0 0.00 0.00 0.00 69 1017.6
20240529185316 69 291 5.0 9.0 0.00 0.00 0.00 69 1017.7
20240529185130 69 271 5.0 9.0 0.00 0.00 0.00 69 1017.6
20240529184949 69 265 6.0 11.0 0.00 0.00 0.00 68 1017.6
20240529184854 69 281 6.0 11.0 0.00 0.00 0.00 68 1017.6
20240529184501 69 265 5.0 11.0 0.00 0.00 0.00 68 1017.6
20240529184311 69 259 5.0 11.0 0.00 0.00 0.00 68 1017.6
20240529184134 69 254 6.0 11.0 0.00 0.00 0.00 68 1017.6
20240529183742 69 241 5.0 9.0 0.00 0.00 0.00 67 1017.6
20240529183232 69 268 6.0 9.0 0.00 0.00 0.00 67 1017.5
20240529183047 70 275 4.0 9.0 0.00 0.00 0.00 66 1017.5
20240529182907 70 269 3.0 9.0 0.00 0.00 0.00 67 1017.5
20240529182819 70 252 4.0 10.0 0.00 0.00 0.00 67 1017.5
20240529182337 70 277 7.0 10.0 0.00 0.00 0.00 66 1017.5
20240529182148 70 284 5.0 10.0 0.00 0.00 0.00 65 1017.4
20240529182002 70 273 4.0 12.0 0.00 0.00 0.00 66 1017.5
20240529181819 70 288 6.0 12.0 0.00 0.00 0.00 65 1017.5
20240529181723 70 278 6.0 12.0 0.00 0.00 0.00 65 1017.4
20240529181629 70 267 6.0 12.0 0.00 0.00 0.00 65 1017.4
20240529181451 70 248 8.0 12.0 0.00 0.00 0.00 64 1017.5
20240529181303 70 279 8.0 12.0 0.00 0.00 0.00 64 1017.4
20240529181117 70 292 6.0 11.0 0.00 0.00 0.00 63 1017.4
20240529180707 70 262 6.0 11.0 0.00 0.00 0.00 63 1017.4
20240529180530 70 260 8.0 11.0 0.00 0.00 0.00 63 1017.5
20240529180057 70 257 6.0 11.0 0.00 0.00 0.00 62 1017.4
20240529175918 70 273 5.0 12.0 0.00 0.00 0.00 63 1017.3
20240529175822 70 311 5.0 12.0 0.00 0.00 0.00 63 1017.4
20240529175340 70 300 6.0 12.0 0.00 0.00 0.00 64 1017.4
20240529175152 70 273 5.0 12.0 0.00 0.00 0.00 63 1017.4
20240529175010 70 293 5.0 13.0 0.00 0.00 0.00 63 1017.4
20240529174825 71 296 7.0 13.0 0.00 0.00 0.00 64 1017.4
20240529174726 71 276 7.0 13.0 0.00 0.00 0.00 64 1017.3
20240529174634 71 275 7.0 13.0 0.00 0.00 0.00 64 1017.5
20240529174454 71 268 6.0 13.0 0.00 0.00 0.00 64 1017.4
20240529174302 71 286 3.0 13.0 0.00 0.00 0.00 64 1017.5
20240529174128 71 281 3.0 13.0 0.00 0.00 0.00 64 1017.5
20240529173947 71 313 3.0 13.0 0.00 0.00 0.00 64 1017.4
20240529173534 72 289 5.0 13.0 0.00 0.00 0.00 63 1017.5
20240529173304 72 299 6.0 13.0 0.00 0.00 0.00 64 1017.5
20240529173122 72 305 6.0 12.0 0.00 0.00 0.00 64 1017.5
20240529172734 72 329 8.0 12.0 0.00 0.00 0.00 63 1017.5
20240529172643 72 281 7.0 12.0 0.00 0.00 0.00 63 1017.5
20240529172500 72 272 8.0 12.0 0.00 0.00 0.00 62 1017.4
20240529172313 72 281 8.0 12.0 0.00 0.00 0.00 62 1017.5
20240529171827 72 240 5.0 11.0 0.00 0.00 0.00 62 1017.4
20240529171733 72 268 6.0 11.0 0.00 0.00 0.00 62 1017.4
20240529171641 72 250 7.0 11.0 0.00 0.00 0.00 61 1017.4
20240529171458 72 268 8.0 11.0 0.00 0.00 0.00 61 1017.5
20240529171307 72 246 6.0 13.0 0.00 0.00 0.00 60 1017.3
20240529171131 72 242 6.0 13.0 0.00 0.00 0.00 60 1017.5
20240529170415 72 289 9.0 13.0 0.00 0.00 0.00 59 1017.4
20240529170223 72 293 9.0 13.0 0.00 0.00 0.00 60 1017.5
20240529170048 72 264 9.0 13.0 0.00 0.00 0.00 59 1017.5
20240529165904 72 260 7.0 13.0 0.00 0.00 0.00 59 1017.5
20240529165817 72 273 8.0 13.0 0.00 0.00 0.00 60 1017.5
20240529165725 72 260 9.0 13.0 0.00 0.00 0.00 59 1017.5
20240529165536 73 262 7.0 13.0 0.00 0.00 0.00 58 1017.5
20240529165216 73 267 6.0 11.0 0.00 0.00 0.00 59 1017.5
20240529165033 73 281 7.0 11.0 0.00 0.00 0.00 58 1017.5
20240529164849 73 242 5.0 11.0 0.00 0.00 0.00 58 1017.5
20240529164759 73 261 5.0 11.0 0.00 0.00 0.00 58 1017.5
20240529164707 73 248 6.0 11.0 0.00 0.00 0.00 58 1017.5
20240529164528 73 256 7.0 12.0 0.00 0.00 0.00 56 1017.6
20240529164229 73 269 7.0 12.0 0.00 0.00 0.00 56 1017.5
20240529164044 73 288 8.0 12.0 0.00 0.00 0.00 55 1017.5
20240529163906 73 269 4.0 12.0 0.00 0.00 0.00 56 1017.5
20240529163811 73 263 4.0 12.0 0.00 0.00 0.00 57 1017.5
20240529163720 73 274 6.0 12.0 0.00 0.00 0.00 58 1017.4
20240529163257 73 271 8.0 12.0 0.00 0.00 0.00 55 1017.5
20240529163111 74 273 6.0 12.0 0.00 0.00 0.00 56 1017.5
20240529162642 74 252 4.0 11.0 0.00 0.00 0.00 55 1017.5
20240529162101 73 291 8.0 11.0 0.00 0.00 0.00 54 1017.4
20240529161642 74 244 5.0 12.0 0.00 0.00 0.00 53 1017.4
20240529161545 74 244 5.0 12.0 0.00 0.00 0.00 53 1017.4
20240529161406 74 234 4.0 12.0 0.00 0.00 0.00 54 1017.4
20240529161226 74 251 8.0 12.0 0.00 0.00 0.00 52 1017.5
20240529161033 74 257 8.0 13.0 0.00 0.00 0.00 52 1017.6
20240529160849 74 269 7.0 13.0 0.00 0.00 0.00 54 1017.6
20240529160753 74 269 4.0 13.0 0.00 0.00 0.00 54 1017.5
20240529160704 73 302 3.0 13.0 0.00 0.00 0.00 54 1017.5
20240529160310 74 269 8.0 16.0 0.00 0.00 0.00 52 1017.5
20240529160113 74 284 7.0 16.0 0.00 0.00 0.00 52 1017.6
20240529155706 74 232 5.0 16.0 0.00 0.00 0.00 53 1017.7
20240529155616 74 232 8.0 16.0 0.00 0.00 0.00 52 1017.7
20240529155440 74 247 6.0 16.0 0.00 0.00 0.00 51 1017.7
20240529155248 74 281 3.0 13.0 0.00 0.00 0.00 51 1017.7
20240529155108 74 211 6.0 13.0 0.00 0.00 0.00 51 1017.7
20240529154653 75 265 4.0 13.0 0.00 0.00 0.00 49 1017.7
20240529154511 75 250 4.0 13.0 0.00 0.00 0.00 50 1017.7
20240529153630 74 262 3.0 14.0 0.00 0.00 0.00 51 1017.7
20240529153533 74 211 6.0 14.0 0.00 0.00 0.00 52 1017.6
20240529153446 74 225 5.0 14.0 0.00 0.00 0.00 53 1017.6
20240529153303 73 291 4.0 14.0 0.00 0.00 0.00 52 1017.7
20240529153115 73 293 10.0 14.0 0.00 0.00 0.00 49 1017.7
20240529152938 73 286 10.0 14.0 0.00 0.00 0.00 49 1017.7
20240529152806 74 233 6.0 13.0 0.00 0.00 0.00 50 1017.7
20240529152712 74 217 5.0 13.0 0.00 0.00 0.00 53 1017.8
20240529152625 74 278 7.0 13.0 0.00 0.00 0.00 52 1017.7
20240529152440 73 238 4.0 13.0 0.00 0.00 0.00 52 1017.7
20240529152259 73 273 6.0 12.0 0.00 0.00 0.00 52 1017.7
20240529152245 73 273 6.0 12.0 0.00 0.00 0.00 52 1017.7
20240529152111 73 283 9.0 12.0 0.00 0.00 0.00 51 1017.8
20240529151931 73 288 6.0 12.0 0.00 0.00 0.00 51 1017.9
20240529151515 73 264 6.0 14.0 0.00 0.00 0.00 52 1017.8
20240529151324 73 250 5.0 14.0 0.00 0.00 0.00 51 1017.9
20240529150936 73 269 10.0 14.0 0.00 0.00 0.00 50 1018.0
20240529150638 73 268 7.0 14.0 0.00 0.00 0.00 49 1017.9
20240529150458 74 239 5.0 11.0 0.00 0.00 0.00 49 1017.9
20240529150315 74 242 8.0 11.0 0.00 0.00 0.00 46 1017.8
20240529150245 74 279 8.0 11.0 0.00 0.00 0.00 46 1017.8
20240529150114 74 288 5.0 12.0 0.00 0.00 0.00 46 1017.9
20240529145933 74 277 5.0 12.0 0.00 0.00 0.00 51 1017.9
20240529145225 73 234 7.0 13.0 0.00 0.00 0.00 51 1017.9
20240529144826 73 272 3.0 13.0 0.00 0.00 0.00 53 1017.9
20240529144651 73 225 8.0 13.0 0.00 0.00 0.00 54 1017.9
20240529144545 73 238 9.0 13.0 0.00 0.00 0.00 53 1017.9
20240529144511 73 239 8.0 13.0 0.00 0.00 0.00 53 1017.9
20240529144332 73 288 4.0 12.0 0.00 0.00 0.00 56 1017.8
20240529144145 73 210 7.0 12.0 0.00 0.00 0.00 54 1017.9
20240529144115 73 276 7.0 12.0 0.00 0.00 0.00 54 1017.9
20240529143954 73 263 6.0 11.0 0.00 0.00 0.00 54 1017.8
20240529143813 73 257 5.0 11.0 0.00 0.00 0.00 56 1017.8
20240529143656 73 217 6.0 11.0 0.00 0.00 0.00 57 1017.9
20240529143628 73 255 5.0 11.0 0.00 0.00 0.00 57 1017.9
20240529143445 73 281 3.0 12.0 0.00 0.00 0.00 58 1017.9
20240529143307 73 229 3.0 12.0 0.00 0.00 0.00 59 1017.9
20240529143232 73 270 3.0 12.0 0.00 0.00 0.00 59 1017.9
20240529143117 73 226 6.0 12.0 0.00 0.00 0.00 57 1017.8
20240529142946 73 250 8.0 12.0 0.00 0.00 0.00 56 1017.9
20240529142648 73 273 8.0 12.0 0.00 0.00 0.00 55 1018.0
20240529142509 74 246 3.0 10.0 0.00 0.00 0.00 56 1017.9
20240529142329 74 269 5.0 8.0 0.00 0.00 0.00 57 1018.0
20240529142253 73 224 5.0 8.0 0.00 0.00 0.00 58 1018.0
20240529141535 73 231 4.0 9.0 0.00 0.00 0.00 57 1018.0
20240529141207 73 244 4.0 9.0 0.00 0.00 0.00 59 1018.1
20240529141055 73 242 6.0 9.0 0.00 0.00 0.00 59 1018.1
20240529140916 73 281 5.0 9.0 0.00 0.00 0.00 58 1018.1
20240529140758 73 245 3.0 13.0 0.00 0.00 0.00 58 1018.0
20240529140728 73 233 4.0 13.0 0.00 0.00 0.00 58 1018.1
20240529140554 73 225 3.0 13.0 0.00 0.00 0.00 58 1018.2
20240529140246 73 231 6.0 13.0 0.00 0.00 0.00 58 1018.2
20240529140126 72 230 6.0 13.0 0.00 0.00 0.00 58 1018.2
20240529135945 72 294 8.0 15.0 0.00 0.00 0.00 57 1018.2
20240529135634 72 279 5.0 15.0 0.00 0.00 0.00 61 1018.2
20240529135445 72 254 6.0 15.0 0.00 0.00 0.00 59 1018.2
20240529135249 72 231 6.0 15.0 0.00 0.00 0.00 58 1018.3
20240529134856 72 238 8.0 15.0 0.00 0.00 0.00 57 1018.3
20240529134715 72 251 6.0 11.0 0.00 0.00 0.00 58 1018.3
20240529134602 72 257 4.0 11.0 0.00 0.00 0.00 58 1018.3
20240529134531 72 236 4.0 11.0 0.00 0.00 0.00 59 1018.3
20240529134348 72 267 7.0 11.0 0.00 0.00 0.00 57 1018.2
20240529134207 72 281 6.0 11.0 0.00 0.00 0.00 56 1018.3
20240529134143 72 259 6.0 11.0 0.00 0.00 0.00 56 1018.3
20240529134016 72 251 6.0 10.0 0.00 0.00 0.00 62 1018.3
20240529133836 72 277 7.0 10.0 0.00 0.00 0.00 59 1018.3
20240529133724 72 286 7.0 11.0 0.00 0.00 0.00 60 1018.3
20240529133650 72 284 5.0 11.0 0.00 0.00 0.00 60 1018.3
20240529133508 72 234 6.0 11.0 0.00 0.00 0.00 59 1018.4
20240529133329 72 242 5.0 11.0 0.00 0.00 0.00 58 1018.3
20240529132742 72 299 7.0 12.0 0.00 0.00 0.00 61 1018.3
20240529132703 72 273 5.0 15.0 0.00 0.00 0.00 62 1018.3
20240529132519 72 225 6.0 15.0 0.00 0.00 0.00 63 1018.4
20240529131518 72 254 2.0 12.0 0.00 0.00 0.00 64 1018.3
20240529131335 72 216 1.0 12.0 0.00 0.00 0.00 65 1018.4
20240529131206 72 212 2.0 15.0 0.00 0.00 0.00 67 1018.3
20240529130807 71 250 3.0 15.0 0.00 0.00 0.00 68 1018.3
20240529130619 71 306 7.0 15.0 0.00 0.00 0.00 66 1018.4
20240529130522 71 262 7.0 15.0 0.00 0.00 0.00 65 1018.4
20240529130431 71 263 6.0 15.0 0.00 0.00 0.00 66 1018.4
20240529130253 71 250 9.0 15.0 0.00 0.00 0.00 66 1018.4
20240529130054 71 281 2.0 10.0 0.00 0.00 0.00 68 1018.5
20240529125922 71 305 2.0 10.0 0.00 0.00 0.00 67 1018.5
20240529125757 71 211 5.0 10.0 0.00 0.00 0.00 67 1018.5
20240529125701 71 261 4.0 10.0 0.00 0.00 0.00 67 1018.4
20240529125611 71 274 5.0 10.0 0.00 0.00 0.00 67 1018.4
20240529125428 71 265 6.0 11.0 0.00 0.00 0.00 66 1018.4
20240529125237 71 261 6.0 11.0 0.00 0.00 0.00 64 1018.4
20240529124841 71 238 4.0 11.0 0.00 0.00 0.00 68 1018.5
20240529124705 71 275 4.0 11.0 0.00 0.00 0.00 67 1018.6
20240529124606 71 281 6.0 11.0 0.00 0.00 0.00 67 1018.6
20240529124509 70 304 7.0 11.0 0.00 0.00 0.00 67 1018.6
20240529124330 71 290 5.0 14.0 0.00 0.00 0.00 67 1018.6
20240529124141 71 296 2.0 14.0 0.00 0.00 0.00 69 1018.6
20240529124001 71 302 5.0 14.0 0.00 0.00 0.00 69 1018.7
20240529123821 71 277 7.0 14.0 0.00 0.00 0.00 70 1018.7
20240529123732 70 296 8.0 14.0 0.00 0.00 0.00 69 1018.7
20240529123640 70 254 4.0 14.0 0.00 0.00 0.00 69 1018.7
20240529123054 70 232 4.0 13.0 0.00 0.00 0.00 70 1018.8
20240529122921 70 235 4.0 13.0 0.00 0.00 0.00 70 1018.7
20240529122113 70 284 4.0 13.0 0.00 0.00 0.00 71 1018.8
20240529121919 70 311 9.0 13.0 0.00 0.00 0.00 69 1018.8
20240529121725 70 287 6.0 11.0 0.00 0.00 0.00 69 1018.8
20240529121329 70 285 4.0 14.0 0.00 0.00 0.00 70 1018.9
20240529121134 69 229 4.0 14.0 0.00 0.00 0.00 72 1018.9
20240529121044 69 229 4.0 14.0 0.00 0.00 0.00 71 1018.8
20240529120951 69 286 4.0 14.0 0.00 0.00 0.00 71 1018.9
20240529120805 69 275 9.0 14.0 0.00 0.00 0.00 70 1018.9
20240529120402 69 275 8.0 14.0 0.00 0.00 0.00 71 1018.9
20240529120219 70 280 7.0 13.0 0.00 0.00 0.00 70 1019.0
20240529120024 69 236 5.0 13.0 0.00 0.00 0.00 71 1019.0
20240529115928 69 282 6.0 13.0 0.00 0.00 0.00 71 1019.1
20240529115836 69 249 8.0 13.0 0.00 0.00 0.00 71 1019.0
20240529115658 69 277 6.0 13.0 0.00 0.00 0.00 69 1019.0
20240529115500 69 239 8.0 13.0 0.00 0.00 0.00 69 1019.1
20240529115318 69 269 6.0 13.0 0.00 0.00 0.00 70 1019.1
20240529115126 69 276 8.0 13.0 0.00 0.00 0.00 69 1019.1
20240529115030 69 252 9.0 13.0 0.00 0.00 0.00 69 1019.1
20240529113547 69 306 8.0 12.0 0.00 0.00 0.00 70 1019.1
20240529113358 69 291 4.0 10.0 0.00 0.00 0.00 70 1019.2
20240529113259 69 298 3.0 10.0 0.00 0.00 0.00 70 1019.1
20240529113208 69 257 3.0 10.0 0.00 0.00 0.00 71 1019.2
20240529113029 69 227 3.0 10.0 0.00 0.00 0.00 71 1019.1
20240529112834 69 243 4.0 12.0 0.00 0.00 0.00 70 1019.1
20240529112652 69 311 7.0 12.0 0.00 0.00 0.00 71 1019.1
20240529112457 69 271 7.0 13.0 0.00 0.00 0.00 70 1019.3
20240529112359 69 260 7.0 13.0 0.00 0.00 0.00 70 1019.2
20240529112316 69 276 7.0 13.0 0.00 0.00 0.00 70 1019.2
20240529112133 69 274 6.0 13.0 0.00 0.00 0.00 70 1019.3
20240529111932 69 282 6.0 13.0 0.00 0.00 0.00 70 1019.4
20240529111750 69 222 6.0 13.0 0.00 0.00 0.00 70 1019.3
20240529110952 69 317 6.0 11.0 0.00 0.00 0.00 73 1019.3
20240529110817 68 243 4.0 13.0 0.00 0.00 0.00 73 1019.4
20240529110602 68 293 4.0 13.0 0.00 0.00 0.00 74 1019.4
20240529110415 68 273 3.0 13.0 0.00 0.00 0.00 73 1019.5
20240529110236 67 290 6.0 13.0 0.00 0.00 0.00 74 1019.4
20240529110138 67 289 7.0 13.0 0.00 0.00 0.00 73 1019.5
20240529110046 68 244 6.0 13.0 0.00 0.00 0.00 73 1019.5
20240529105908 68 250 4.0 11.0 0.00 0.00 0.00 74 1019.5
20240529105709 68 275 2.0 11.0 0.00 0.00 0.00 74 1019.5
20240529105315 68 303 6.0 11.0 0.00 0.00 0.00 74 1019.5
20240529105137 68 281 5.0 11.0 0.00 0.00 0.00 75 1019.6
20240529105028 68 290 3.0 11.0 0.00 0.00 0.00 75 1019.6
20240529104945 68 254 4.0 10.0 0.00 0.00 0.00 76 1019.5
20240529104801 67 302 4.0 10.0 0.00 0.00 0.00 76 1019.6
20240529104603 67 309 4.0 10.0 0.00 0.00 0.00 76 1019.5
20240529104413 67 284 6.0 10.0 0.00 0.00 0.00 76 1019.6
20240529103916 67 276 3.0 10.0 0.00 0.00 0.00 76 1019.7
20240529103829 67 266 3.0 10.0 0.00 0.00 0.00 76 1019.6
20240529103652 67 317 4.0 10.0 0.00 0.00 0.00 76 1019.7
20240529103456 67 296 6.0 10.0 0.00 0.00 0.00 76 1019.7
20240529103312 67 263 6.0 10.0 0.00 0.00 0.00 75 1019.8
20240529103120 67 290 4.0 10.0 0.00 0.00 0.00 75 1019.7
20240529103023 67 295 5.0 10.0 0.00 0.00 0.00 75 1019.6
20240529102547 67 282 4.0 10.0 0.00 0.00 0.00 76 1019.7
20240529102351 67 273 3.0 12.0 0.00 0.00 0.00 76 1019.7
20240529102207 67 273 4.0 12.0 0.00 0.00 0.00 77 1019.7
20240529101418 66 263 8.0 12.0 0.00 0.00 0.00 76 1019.8
20240529101233 66 258 6.0 12.0 0.00 0.00 0.00 76 1019.7
20240529101035 66 259 8.0 12.0 0.00 0.00 0.00 76 1019.7
20240529100457 66 288 1.0 10.0 0.00 0.00 0.00 78 1019.7
20240529100407 66 263 1.0 10.0 0.00 0.00 0.00 77 1019.7
20240529100315 66 350 3.0 12.0 0.00 0.00 0.00 78 1019.7
20240529100139 66 258 7.0 12.0 0.00 0.00 0.00 76 1019.6
20240529095939 66 275 4.0 12.0 0.00 0.00 0.00 76 1019.8
20240529095548 66 311 5.0 12.0 0.00 0.00 0.00 76 1019.8
20240529095053 66 288 8.0 12.0 0.00 0.00 0.00 74 1019.8
20240529094958 66 298 7.0 12.0 0.00 0.00 0.00 74 1019.8
20240529094818 66 270 3.0 8.0 0.00 0.00 0.00 76 1019.8
20240529094623 66 302 4.0 8.0 0.00 0.00 0.00 74 1019.8
20240529094227 66 258 2.0 8.0 0.00 0.00 0.00 75 1019.7